ONEWEB-0035, 45143

Orbit data source: Space-Track

ONEWEB-0035, 45143 is a payload satellite owned by One Web (UK) in LEO that was launched on Thu, 06 Feb 2020 UTC via a SOYUZ-2-1B launch vehicle from the Tyuratam Missile And Space Complex (TTMTR). Payload-class satellites include a variety of spacecraft equipped with specific instruments for various scientific and technological missions. These include communications satellites like Starlink; space stations such as the ISS; scientific satellites like the Hubble; Earth observation satellites from companies like Planet Labs, Umbra, and HawkEye 360; GPS; miniature CubeSats for education and research; and military/defense satellites.

Loading next visibility...
Identifier
45143, 2020-008N
Orbit
LEO
Country
Flag of UKUK
Related business
Manufacturer
One Web
Mission
Operational Commercial Communications
Bus & Motor
ARROW, Unknown motor
Mass
148 kg wet, ~140 kg dry
Launch date (UTC)
2020-02-06 (6 years ago)
Launch vehicle
SOYUZ-2-1B
Launch site
Tyuratam Missile And Space Complex (TTMTR)
Object type
Payload
Rocket body
Debris
Shape & HBR
Trap Box + 2 Pan, 6.7 m
Radar Cross Section
3.464 m², Large (>1 m²)

Expand to show TLE details & history
Last TLE update: 23 hours ago

TLE from 23 hours ago
0 ONEWEB-0035
1 45143U 20008N   25308.43979262  .00000667  00000-0  18741-2 0  9999
2 45143  87.8780  81.0895 0001703  97.0456 263.0865 13.10374105278507
Epoch: 2025-11-04T10:33Z
TLE epoch observation values (Epoch: 2025-11-04T10:33:18.082Z)
Latitude
-0.00002°
Longitude
-121.16263°
Altitude
1,224.756 km
Speed
7.242 km/s
True Right ascension
05h 24m 21s
True Declination
0° 00' 00"
Sunlit
Object was in full shadow at epoch
Visualization orbit readout
Latitude
Unknown
Longitude
Unknown
Altitude
Unknown
Speed
Unknown
Apparent Right ascension
Unknown
Apparent Declination
Unknown
Sunlit
N/A
Visualization observer readout
Local Sidereal Time
05:58:55
Azimuth
Unknown
Elevation
Unknown
Doppler factor
Unknown
Orbital elements
Apogee altitude
1,220.126 km
Perigee altitude
1,217.538 km
Semi-major axis
7,596.969 km
Eccentricity
0.00017
Inclination
87.878°
RAAN
81.0895°
Arg. of periapsis
97.0456°
True anomaly
263.06713°
Mean anomaly
263.0865°
Eccentric anomaly
263.07681°
Mean motion
3.2778 °/min
Orbital period
109.83 mins
BSTAR
0.0018741
Loading maneuver chart data...
Computing Atmospheric mass density...
Loading historical data...
Loading historical data...
Loading historical data...
Loading historical data...
Loading historical data...
Loading historical data...
Loading historical data...

Documentation

Showing up to 5 results
|